Domov               UVHVVR             MKGP            O straneh              
ZDRAVSTVENO VARSTVO RASTLIN
  MREŽA AGROMET. POSTAJ
 ► PROGNOSTIČNA OBVESTILA
AGROMETEOROLOŠKI PODATKI -
ARSO
OBVLADOVANJE TVEGANJ ZARADI
NEUGODNIH VREMENSKIH RAZMER
  ► NARAVNE NESREČE
  ► SUŠA/MOČA
  ► NAMAKANJE
  ► ŽLED (gozdarstvo)
KARTOGRAFSKI PRIKAZI
SPLETNE POVEZAVE
PROJEKTI IN PUBLIKACIJE

AGROMETEOROLOŠKA MREŽA: VREMENSKE POSTAJE IN FENOLOŠKA OPAZOVANJA

Pregled podatkov za lokacijo Virštanj, meteorološka postaja 38139

Pregled senzorjev na lokaciji

ID Ime Zadnja
vrednost
Datum
zadnje
spremembe
Tip
senzorja
4384 Omočenost lista (U) 0 U 22.3.2019 23:00 A730WET
4450 Padavine (mm) 0 mm 22.3.2019 22:59 Generic 0.2 mm
4452 Relativna vlaga 2 m (% RH) 35,51 % RH 22.3.2019 23:00 50YA
4451 Temperatura 2 m (°C) 11,38 °C 22.3.2019 23:00 50YA

Pregled podatkov zadnjih 24 ur

Zap.
št.
Datum in čas Virštanj
Omočenost
lista
Padavine Relativna
vlaga
2
m
Temperatura
2
m
1 22.3.2019 23:30
2 22.3.2019 23:00
3 22.3.2019 22:30
4 22.3.2019 22:00 0 0 35,5 11,4
5 22.3.2019 21:30 0 0 35,8 11,5
6 22.3.2019 21:00 0 0 35,9 11,5
7 22.3.2019 20:30 0 0 32,7 11,8
8 22.3.2019 20:00 0 0 30,3 12,6
9 22.3.2019 19:30 0 0 30,7 13
10 22.3.2019 19:00 0 0 26,8 13,6
11 22.3.2019 18:30 0 0 33,3 13,8
12 22.3.2019 18:00 0 0 33,6 13,9
13 22.3.2019 17:30 0 0 33,2 14,6
14 22.3.2019 17:00 0 0 31,2 15,2
15 22.3.2019 16:30 0 0 30,5 15,5
16 22.3.2019 16:00 0 0 31,1 15,2
17 22.3.2019 15:30 0 0 30,9 15,2
18 22.3.2019 15:00 0 0 31,6 15,1
19 22.3.2019 14:30 0 0 31,2 14,8
20 22.3.2019 14:00 0 0 30,4 14,5
21 22.3.2019 13:30 0 0 30,3 14,2
22 22.3.2019 13:00 0 0 33 13,6
23 22.3.2019 12:30 0 0 35,5 13,1
24 22.3.2019 12:00 0 0 34,7 12,6
25 22.3.2019 11:30 0 0 36,8 12,2
26 22.3.2019 11:00 0 0 40,9 11,7
27 22.3.2019 10:30 0 0 48,6 10,4
28 22.3.2019 10:00 0 0 58,5 8,7
29 22.3.2019 09:30 0 0 63,8 7,3
30 22.3.2019 09:00 0 0 63,5 6,5
31 22.3.2019 08:30 0 0 65,3 5,8
32 22.3.2019 08:00 0 0 66,1 5,1
33 22.3.2019 07:30 0 0 65,7 4,5
34 22.3.2019 07:00 0 0 65,8 3,5
35 22.3.2019 06:30 0 0 65,2 3,1
36 22.3.2019 06:00 0 0 64,7 3
37 22.3.2019 05:30 0 0 64,1 3
38 22.3.2019 05:00 0 0 61,8 3,7
39 22.3.2019 04:30 0 0 60,3 4,1
40 22.3.2019 04:00 0 0 58,5 4,4
41 22.3.2019 03:30 0 0 60,7 3,8
42 22.3.2019 03:00 0 0 57,6 4,7
43 22.3.2019 02:30 0 0 55,7 5,1
44 22.3.2019 02:00 0 0 55,7 5,1
45 22.3.2019 01:30 0 0 54,5 5,5
46 22.3.2019 01:00 0 0 54 5,6
47 22.3.2019 00:30 0 0 53,8 5,7
48 22.3.2019 00:00 0 0 53 5,9
© 2011 Ministrstvo za kmetijstvo, gozdarstvo in prehrano. Vse pravice pridržane.